Location: Agendoh
(31.0664°N, 8.9343°W)
Time: 07:44:46
(UTC+00:00)

Cosmos 1867 - Pass Details

Date: 06 December 2021
Orbit: 773 x 802 km, 65.0° (Epoch: 25 January)

Event Time Altitude Azimuth Distance (km) Brightness Sun altitude
Exits shadow 05:42:00 38° 258° (WSW) 1,199 4.0 -20.6°
Maximum altitude 05:42:21 38° 249° (WSW) 1,189 4.1 -20.5°
Drops below altitude 10° 05:47:20 10° 182° (S) 2,350 6.2 -19.5°
Sets 05:49:53 0° 174° (S) 3,272 7.1 -18.9°
